Main page
METAR-TAF:

METAR-TAF

Airports :

Maringá Regional Airport

Maringá, Paraná, Brazil

latitude: 23-25S, longitude: 051-57W, elevation: 542 m

Current weather observation

The report was made 1 hour and 34 minutes ago, at 15:00 UTC
Wind 5 kt from the North/Northwest
Temperature 31°C
Humidity 59%
Pressure 1014 hPa
Visibility 10 km or more
Scattered clouds at a height of 2500 ft

METAR: SBMG 211500Z 34005KT 9999 SCT025 31/22 Q1014

Time: 13:34 (16:34 UTC)


TAF: missing

Weather observations and forecasts of more than 4000 airports (METAR and TAF reports).

The available stations are represented by yellow and red dots on the map.

Hover mouse over dot to see the name of the station.

Then click to see weather observations and forecasts.

To change the map : click on the green buttons with a black cross to zoom in, on the green button with a dash to zoom out, or on the green arrows for adjacent maps.


METAR-TAF: